Regional Weather Roundup
Issued by NWS

Home | Current Version | Previous Version | Text Only | Print | Product List | Glossary Off
Versions: 1 2 3 4 5 6 7 8 9 10 11 12 13 14 15 16 17 18 19 20 21 22 23 24 25 26 27 28 29 30 31 32 33 34 35 36 37 38 39 40 41 42 43 44 45 46 47 48 49 50

000
ASUS45 KPSR 281500
RWRAZ

ARIZONA HOURLY REGIONAL WEATHER ROUNDUP
NATIONAL WEATHER SERVICE PHOENIX AZ
800 AM MST THU MAY 28 2015

NOTE: FAIR INDICATES FEW OR NO CLOUDS BELOW 12,000 FEET WITH NO
SIGNIFICANT WEATHER AND/OR OBSTRUCTIONS TO VISIBILITY.

AZZ001>003-036-281600-
NORTHWEST ARIZONA

CITY           SKY/WX    TMP DP  RH WIND       PRES   REMARKS
KINGMAN        SUNNY     77  22  13 SE8       30.04R
$$

AZZ004>008-015-016-018-281600-
NORTH CENTRAL ARIZONA

CITY           SKY/WX    TMP DP  RH WIND       PRES   REMARKS
GRAND CANYON   SUNNY     62  33  33 CALM      30.21S
WILLIAMS       SUNNY     63  23  22 VRB3      30.29R
PRESCOTT       SUNNY     65  31  28 CALM      30.14R
FLAGSTAFF      NOT AVBL
PAYSON         SUNNY     68  25  19 CALM      30.16S
PAGE           SUNNY     66  42  41 VRB3      30.09R
$$

AZZ009>014-017-281600-
NORTHEAST ARIZONA

CITY           SKY/WX    TMP DP  RH WIND       PRES   REMARKS
WINSLOW        NOT AVBL
SAINT JOHNS    SUNNY     62  25  24 CALM      30.17S
WINDOW ROCK    SUNNY     60  34  37 CALM      30.21S
$$

AZZ023-281600-
GREATER PHOENIX AREA

CITY           SKY/WX    TMP DP  RH WIND       PRES   REMARKS
PHOENIX        SUNNY     78  37  22 SE7       29.92R
GLENDALE       SUNNY     77  39  25 NE6       29.95R
LUKE AFB       SUNNY     77  38  24 NE7       29.93R
DEER VALLEY    SUNNY     76  34  21 CALM      29.94R
SCOTTSDALE     SUNNY     75  40  28 CALM      29.96R
MESA-FALCON    SUNNY     75  34  22 N9        29.95R
MESA-GATEWAY   SUNNY     75  43  31 SE7       29.96R
CHANDLER       SUNNY     73  45  35 CALM      29.94R
$$

AZZ027-028-281600-
SOUTHWEST MARICOPA COUNTY AND PINAL COUNTY

CITY           SKY/WX    TMP DP  RH WIND       PRES   REMARKS
CASA GRANDE    SUNNY     75  34  22 CALM      29.94R
$$

AZZ503-504-507>509-281600-
SOUTHEAST ARIZONA

CITY           SKY/WX    TMP DP  RH WIND       PRES   REMARKS
TUCSON         SUNNY     73  31  21 S3        30.03R
DAVIS-MONTHAN  SUNNY     76  30  18 SE2       30.01R
RYAN FIELD       N/A     73  37  27 E3        30.02R
NOGALES        SUNNY     68  30  24 CALM      30.08R
SIERRA VISTA   SUNNY     72  27  18 NE2       30.14R
SAFFORD        SUNNY     73  26  17 CALM      30.03R
$$

AZZ020-021-025-026-031-281600-
SOUTHWEST ARIZONA

CITY           SKY/WX    TMP DP  RH WIND       PRES   REMARKS
YUMA           NOT AVBL
$$

CAZ031-033-041-043-047-048-061-281600-
SOUTHERN CALIFORNIA

CITY           SKY/WX    TMP DP  RH WIND       PRES   REMARKS
DOWNTOWN L.A.  CLOUDY    60  54  80 VRB3      30.00R HAZE
L.A. AIRPORT   CLOUDY    59  55  87 SE3       30.00R
SAN DIEGO      CLOUDY    63  56  78 CALM      30.01R
BURBANK        CLOUDY    57  53  86 SE5       30.00R FOG
ONTARIO        CLOUDY    57  53  86 W3        30.00R FOG
RIVERSIDE      CLOUDY    58  54  86 CALM      30.01R FOG
PALM SPRINGS   SUNNY     77  52  41 CALM      29.91R
EL CENTRO NAS  MOSUNNY   73  60  63 SE3       29.89R
IMPERIAL       SUNNY     73  58  59 SE5       29.87R
BLYTHE           N/A     77  44  30 CALM      29.89R
$$

NVZ020-UTZ003-281600-
SOUTHERN NEVADA-UTAH

CITY           SKY/WX    TMP DP  RH WIND       PRES   REMARKS
LAS VEGAS      NOT AVBL
SALT LAKE CITY PTSUNNY   57  46  66 SE13      30.11R
$$

NMZ009-TXZ055-281600-
NEW MEXICO-WEST TEXAS

CITY           SKY/WX    TMP DP  RH WIND       PRES   REMARKS
ALBUQUERQUE    MOSUNNY   65  36  34 CALM      30.15R
EL PASO        MOSUNNY   80  32  17 N5        30.04R
$$


........................KEY........................
SKY/WX - SKY CONDITION/WEATHER
TMP    - TEMPERATURE IN FAHRENHEIT
DP     - DEW POINT IN FAHRENHEIT
RH     - RELATIVE HUMIDITY IN PERCENT
WIND   - DIRECTION AND SPEED IN MILES PER HOUR (MPH)
VRB    - VARIABLE WIND DIRECTION
PRES   - MEAN SEA LEVEL PRESSURE IN INCHES OF MERCURY
         F - FALLING PRESSURE   R - RISING PRESSURE
         S - STEADY PRESSURE
VSB    - VISIBILITY IN MILES
HX     - HEAT INDEX IN FAHRENHEIT
WCI    - WIND CHILL INDEX IN FAHRENHEIT
TC     - TEMPERATURE IN CELSIUS WHICH IS ALSO KNOWN AS
         TEMPERATURE IN CENTIGRADE
AFB    - AIR FORCE BASE
         LUKE AFB IS LUKE AIR FORCE BASE
         DAVIS-MONTHAN IS DAVIS-MONTHAN AIR FORCE BASE
NAS    - NAVAL AIR STATION
         EL CENTRO NAS IS EL CENTRO NAVAL AIR STATION
N/A    - NOT AVAILABLE




USA.gov is the U.S. government's official web portal to all federal, state and local government web resources and services.